Weather History for KDEN - January, 2013

Change the Weather History Date:

Tuesday, January 22, 2013

  Actual Average Record
Temperature  
Mean Temperature 46 °F 31 °F  
Max Temperature 64 °F 44 °F 68 °F (1981)
Min Temperature 27 °F 17 °F -14 °F (1962)
Degree Days  
Heating Degree Days 19 34  
Month to date heating degree days 817 753  
Since 1 July heating degree days 3050 3221  
Cooling Degree Days 0 0  
Month to date cooling degree days 0 0  
Year to date cooling degree days 0 0  
Moisture  
Dew Point -5 °F    
Average Humidity 16    
Maximum Humidity 28    
Minimum Humidity 3    
Precipitation  
Precipitation 0.00 in 0.01 in 0.47 in (1968)
Month to date precipitation 0.08 0.29  
Year to date precipitation 0.08 0.29  
Snow  
Snow 0.00 in - - ()
Month to date snowfall 1.4  
Since 1 July snowfall 13.8  
Snow Depth 0.00 in    
Sea Level Pressure  
Sea Level Pressure 30.02 in    
Wind  
Wind Speed 9 mph (SSW)    
Max Wind Speed 18 mph    
Max Gust Speed 21 mph    
Visibility 10 miles    
Events      
T = Trace of Precipitation, MM = Missing Value Source: NWS Daily Summary

Daily Weather History Graph

Daily Weather History Graph

Search for Another Location

Airport or City:

Trip Planner

Search our weather history database for the weather conditions in past years. The results will help you decide how hot, cold, wet, or windy it might be!

Date:

Astronomy

Jan. 22, 2013 Rise Set
Actual Time 7:14 AM MST 5:06 PM MST
Civil Twilight 6:45 AM MST 5:35 PM MST
Nautical Twilight 6:12 AM MST 6:08 PM MST
Astronomical Twilight 5:40 AM MST 6:40 PM MST
Moon 1:31 PM MST (1/22) 3:38 AM MST (1/22)
Length of Visible Light 10h 50m
Length of Day
9h 52m
Waxing Gibbous, 83% of the Moon is Illuminated
Jan 22
Waxing Gibbous
Jan 26
Full
Feb 3
Last Quarter
Feb 10
New
Feb 17
First Quarter

Hourly Weather History & Observations

Time (MST) Temp. Windchill Dew Point Humidity Pressure Visibility Wind Dir Wind Speed Gust Speed Precip Events Conditions
12:53 AM 35.1 °F 27.4 °F -0.0 °F 23% 29.98 in 10.0 mi WSW 10.4 mph - N/A   Partly Cloudy
1:53 AM 39.9 °F 31.4 °F -4.0 °F 16% 29.95 in 10.0 mi SW 16.1 mph - N/A   Scattered Clouds
2:53 AM 39.9 °F 32.5 °F -4.0 °F 16% 29.94 in 10.0 mi SW 12.7 mph - N/A   Scattered Clouds
3:53 AM 36.0 °F 27.5 °F -2.0 °F 20% 29.94 in 10.0 mi SW 12.7 mph - N/A   Scattered Clouds
4:53 AM 36.0 °F 28.0 °F -4.0 °F 18% 29.96 in 10.0 mi SW 11.5 mph - N/A   Scattered Clouds
5:53 AM 37.0 °F 31.0 °F -7.1 °F 15% 30.01 in 10.0 mi WSW 8.1 mph - N/A   Scattered Clouds
6:53 AM 35.1 °F 28.6 °F -5.1 °F 18% 30.06 in 10.0 mi WSW 8.1 mph - N/A   Scattered Clouds
7:53 AM 37.0 °F 31.6 °F -2.9 °F 18% 30.07 in 10.0 mi WSW 6.9 mph - N/A   Scattered Clouds
8:53 AM 42.1 °F 38.4 °F 3.9 °F 21% 30.05 in 10.0 mi SSE 5.8 mph - N/A   Scattered Clouds
9:53 AM 52.0 °F - -5.1 °F 9% 30.03 in 10.0 mi SSW 4.6 mph - N/A   Scattered Clouds
10:53 AM 57.0 °F - -11.9 °F 6% 30.01 in 10.0 mi Calm Calm - N/A   Partly Cloudy
11:53 AM 60.1 °F - -20.0 °F 4% 30.00 in 10.0 mi Variable 3.5 mph - N/A   Scattered Clouds
12:53 PM 63.0 °F - -20.9 °F 4% 29.97 in 10.0 mi WNW 8.1 mph - N/A   Scattered Clouds
1:53 PM 63.0 °F - -18.0 °F 4% 29.94 in 10.0 mi NW 6.9 mph - N/A   Partly Cloudy
2:53 PM 63.0 °F - -14.1 °F 4% 29.95 in 10.0 mi NNW 8.1 mph - N/A   Partly Cloudy
3:53 PM 61.0 °F - -8.0 °F 6% 29.99 in 10.0 mi NNE 3.5 mph - N/A   Partly Cloudy
4:53 PM 48.0 °F - 6.1 °F 18% 30.04 in 10.0 mi SE 8.1 mph - N/A   Scattered Clouds
5:53 PM 42.1 °F 36.1 °F 5.0 °F 22% 30.08 in 10.0 mi SSE 10.4 mph - N/A   Mostly Cloudy
6:53 PM 44.1 °F 40.1 °F 5.0 °F 20% 30.10 in 10.0 mi SE 6.9 mph - N/A   Scattered Clouds
7:53 PM 48.9 °F - -2.9 °F 12% 30.09 in 10.0 mi SSE 5.8 mph - N/A   Scattered Clouds
8:53 PM 30.0 °F 22.4 °F 1.9 °F 30% 30.14 in 10.0 mi SSE 8.1 mph - N/A   Scattered Clouds
9:53 PM 30.9 °F 22.8 °F 1.0 °F 28% 30.11 in 10.0 mi South 9.2 mph - N/A   Scattered Clouds
10:53 PM 37.9 °F 29.2 °F -5.1 °F 16% 30.07 in 10.0 mi SSW 15.0 mph - N/A   Scattered Clouds
11:53 PM 42.1 °F 33.9 °F -6.0 °F 13% 30.04 in 10.0 mi SSW 17.3 mph - N/A   Scattered Clouds